,,,PA_Meas_PMT16A,,PR_Meas_QMR101_102,,RH_Meas_QMH101,,SR_Meas_QMS101,,TA_Meas_QMH101,,GenWind,,GenWind,
date,time,status,PA,status,PR,status,RH,status,SR,status,TA,status,DirAvg,status,SpdAvg,
2011-04-01, 00:00:05,VALID,1009.38,VALID,0,VALID,104,VALID,0,VALID,23.5558,VALID,354,VALID,0.178906,
2011-04-01, 00:01:05,VALID,1009.35,VALID,0,VALID,104,VALID,0.105969,VALID,23.5363,VALID,354,VALID,0,
2011-04-01, 00:02:05,VALID,1009.36,VALID,0,VALID,104,VALID,0,VALID,23.5169,VALID,354,VALID,0,
2011-04-01, 00:03:05,VALID,1009.29,VALID,0,VALID,104,VALID,0.105969,VALID,23.4761,VALID,354,VALID,0,
2011-04-01, 00:04:05,VALID,1009.29,VALID,0,VALID,103.992,VALID,0.105969,VALID,23.4974,VALID,354,VALID,0,
2011-04-01, 00:05:05,VALID,1009.29,VALID,0,VALID,103.87,VALID,0,VALID,23.4566,VALID,354,VALID,0,
2011-04-01, 00:06:05,VALID,1009.27,VALID,0,VALID,103.802,VALID,0,VALID,23.4584,VALID,354,VALID,0,
2011-04-01, 00:07:05,VALID,1009.28,VALID,0,VALID,103.817,VALID,0.105969,VALID,23.4584,VALID,354,VALID,0,
2011-04-01, 00:08:05,VALID,1009.25,VALID,0,VALID,103.84,VALID,0.105969,VALID,23.4797,VALID,354,VALID,0,
2011-04-01, 00:09:05,VALID,1009.21,VALID,0,VALID,103.832,VALID,0,VALID,23.4194,VALID,354,VALID,0,
2011-04-01, 00:10:05,VALID,1009.21,VALID,0,VALID,103.84,VALID,0.105969,VALID,23.4,VALID,354,VALID,0,
2011-04-01, 00:11:05,VALID,1009.17,VALID,0,VALID,103.848,VALID,0.105969,VALID,23.3805,VALID,354,VALID,0,
2011-04-01, 00:12:05,VALID,1009.16,VALID,0,VALID,103.848,VALID,0,VALID,23.3805,VALID,354,VALID,0,
2011-04-01, 00:13:05,VALID,1009.09,VALID,0,VALID,103.939,VALID,0,VALID,23.3823,VALID,354,VALID,0,
2011-04-01, 00:14:05,VALID,1009.07,VALID,0,VALID,104,VALID,0,VALID,23.361,VALID,354,VALID,0,
2011-04-01, 00:15:05,VALID,1009.02,VALID,0,VALID,104,VALID,0.105969,VALID,23.3415,VALID,354,VALID,0,
2011-04-01, 00:16:05,VALID,1009.01,VALID,0,VALID,104,VALID,0.105969,VALID,23.3415,VALID,354,VALID,0,
2011-04-01, 00:17:05,VALID,1009.02,VALID,0,VALID,104,VALID,0,VALID,23.3433,VALID,354,VALID,0,
2011-04-01, 00:18:05,VALID,1008.99,VALID,0,VALID,104,VALID,0,VALID,23.3026,VALID,354,VALID,0,
2011-04-01, 00:19:05,VALID,1008.98,VALID,0,VALID,104,VALID,0.105969,VALID,23.3238,VALID,354,VALID,0,
2011-04-01, 00:20:05,VALID,1008.96,VALID,0,VALID,104,VALID,0.105969,VALID,23.2831,VALID,354,VALID,0,
2011-04-01, 00:21:05,VALID,1008.93,VALID,0,VALID,104,VALID,0,VALID,23.2831,VALID,354,VALID,0,
2011-04-01, 00:22:05,VALID,1008.9,VALID,0,VALID,104,VALID,0.105969,VALID,23.2636,VALID,354,VALID,0,
2011-04-01, 00:23:05,VALID,1008.91,VALID,0,VALID,104,VALID,0,VALID,23.2848,VALID,354,VALID,0,
2011-04-01, 00:24:05,VALID,1008.91,VALID,0,VALID,104,VALID,0.105969,VALID,23.2636,VALID,354,VALID,0,
2011-04-01, 00:25:05,VALID,1008.87,VALID,0,VALID,104,VALID,0.105969,VALID,23.2246,VALID,354,VALID,0,
2011-04-01, 00:26:05,VALID,1008.88,VALID,0,VALID,104,VALID,0,VALID,23.1857,VALID,354,VALID,0,
2011-04-01, 00:27:05,VALID,1008.86,VALID,0,VALID,104,VALID,0,VALID,23.1662,VALID,354,VALID,0,
2011-04-01, 00:28:05,VALID,1008.85,VALID,0,VALID,104,VALID,0.105969,VALID,23.1467,VALID,354,VALID,0,
2011-04-01, 00:29:05,VALID,1008.86,VALID,0,VALID,104,VALID,0,VALID,23.1662,VALID,354,VALID,0,
2011-04-01, 00:30:05,VALID,1008.85,VALID,0,VALID,104,VALID,0.105969,VALID,23.1662,VALID,354,VALID,0,
2011-04-01, 00:31:05,VALID,1008.82,VALID,0,VALID,104,VALID,0,VALID,23.1662,VALID,354,VALID,0,
2011-04-01, 00:32:05,VALID,1008.8,VALID,0,VALID,104,VALID,0.105969,VALID,23.1467,VALID,354,VALID,0,
2011-04-01, 00:33:05,VALID,1008.77,VALID,0,VALID,104,VALID,0.105969,VALID,23.1467,VALID,354,VALID,0,
2011-04-01, 00:34:05,VALID,1008.75,VALID,0,VALID,104,VALID,0.105969,VALID,23.1467,VALID,354,VALID,0,
2011-04-01, 00:35:05,VALID,1008.77,VALID,0,VALID,104,VALID,0,VALID,23.1679,VALID,354,VALID,0,
2011-04-01, 00:36:05,VALID,1008.72,VALID,0,VALID,104,VALID,0,VALID,23.1467,VALID,354,VALID,0,
2011-04-01, 00:37:05,VALID,1008.67,VALID,0,VALID,104,VALID,0,VALID,23.1467,VALID,354,VALID,0,
2011-04-01, 00:38:05,VALID,1008.65,VALID,0,VALID,104,VALID,0,VALID,23.1662,VALID,354,VALID,0,
2011-04-01, 00:39:05,VALID,1008.61,VALID,0,VALID,104,VALID,0.105969,VALID,23.1467,VALID,354,VALID,0,
2011-04-01, 00:40:05,VALID,1008.59,VALID,0,VALID,104,VALID,0.105969,VALID,23.1467,VALID,354,VALID,0,
2011-04-01, 00:41:05,VALID,1008.61,VALID,0,VALID,104,VALID,0,VALID,23.1662,VALID,354,VALID,0,
2011-04-01, 00:42:05,VALID,1008.6,VALID,0,VALID,104,VALID,0.105969,VALID,23.1662,VALID,354,VALID,0,
2011-04-01, 00:43:05,VALID,1008.54,VALID,0,VALID,104,VALID,0,VALID,23.1467,VALID,354,VALID,0,
2011-04-01, 00:44:05,VALID,1008.55,VALID,0,VALID,104,VALID,0,VALID,23.1857,VALID,354,VALID,0,
2011-04-01, 00:45:05,VALID,1008.53,VALID,0,VALID,104,VALID,0,VALID,23.1662,VALID,354,VALID,0,
2011-04-01, 00:46:05,VALID,1008.52,VALID,0,VALID,104,VALID,0,VALID,23.1662,VALID,354,VALID,0,
2011-04-01, 00:47:05,VALID,1008.45,VALID,0,VALID,104,VALID,0,VALID,23.1857,VALID,354,VALID,0,
2011-04-01, 00:48:05,VALID,1008.43,VALID,0,VALID,104,VALID,0,VALID,23.1857,VALID,354,VALID,0,
2011-04-01, 00:49:05,VALID,1008.37,VALID,0,VALID,104,VALID,0.105969,VALID,23.1662,VALID,354,VALID,0,
2011-04-01, 00:50:05,VALID,1008.38,VALID,0,VALID,104,VALID,0.105969,VALID,23.1679,VALID,354,VALID,0,
2011-04-01, 00:51:05,VALID,1008.41,VALID,0,VALID,104,VALID,0.105969,VALID,23.1467,VALID,354,VALID,0,
2011-04-01, 00:52:05,VALID,1008.4,VALID,0,VALID,104,VALID,0,VALID,23.1272,VALID,354,VALID,0,
2011-04-01, 00:53:05,VALID,1008.4,VALID,0,VALID,104,VALID,0,VALID,23.129,VALID,354,VALID,0,
2011-04-01, 00:54:05,VALID,1008.43,VALID,0,VALID,104,VALID,0.105969,VALID,23.1077,VALID,354,VALID,0,
2011-04-01, 00:55:05,VALID,1008.44,VALID,0,VALID,104,VALID,0.105969,VALID,23.0883,VALID,354,VALID,0,
2011-04-01, 00:56:05,VALID,1008.42,VALID,0,VALID,104,VALID,0.105969,VALID,23.0883,VALID,354,VALID,0,
2011-04-01, 00:57:05,VALID,1008.43,VALID,0,VALID,104,VALID,0,VALID,23.0883,VALID,354,VALID,0,
2011-04-01, 00:58:05,VALID,1008.47,VALID,0,VALID,104,VALID,0.105969,VALID,23.0688,VALID,354,VALID,0,
2011-04-01, 00:59:05,VALID,1008.48,VALID,0,VALID,104,VALID,0,VALID,23.0298,VALID,354,VALID,0,
2011-04-01, 01:00:05,VALID,1008.48,VALID,0,VALID,104,VALID,0,VALID,23.0298,VALID,354,VALID,0,
2011-04-01, 01:01:05,VALID,1008.43,VALID,0,VALID,104,VALID,0,VALID,23.0511,VALID,354,VALID,0,
2011-04-01, 01:02:05,VALID,1008.41,VALID,0,VALID,104,VALID,0.105969,VALID,23.0298,VALID,354,VALID,0,
2011-04-01, 01:03:05,VALID,1008.43,VALID,0,VALID,104,VALID,0,VALID,23.0298,VALID,354,VALID,0,
2011-04-01, 01:04:05,VALID,1008.44,VALID,0,VALID,104,VALID,0.105969,VALID,23.0493,VALID,354,VALID,0,
2011-04-01, 01:05:05,VALID,1008.44,VALID,0,VALID,104,VALID,0,VALID,23.0705,VALID,354,VALID,0,
2011-04-01, 01:06:05,VALID,1008.44,VALID,0,VALID,104,VALID,0,VALID,23.0705,VALID,354,VALID,0,
2011-04-01, 01:07:05,VALID,1008.38,VALID,0,VALID,104,VALID,0.105969,VALID,23.0688,VALID,354,VALID,0,
2011-04-01, 01:08:05,VALID,1008.4,VALID,0,VALID,104,VALID,0.105969,VALID,23.0688,VALID,354,VALID,0,
2011-04-01, 01:09:05,VALID,1008.4,VALID,0,VALID,104,VALID,0.105969,VALID,23.0493,VALID,354,VALID,0,
2011-04-01, 01:10:05,VALID,1008.4,VALID,0,VALID,104,VALID,0.105969,VALID,23.0493,VALID,354,VALID,0,
2011-04-01, 01:11:05,VALID,1008.43,VALID,0,VALID,104,VALID,0,VALID,23.0493,VALID,354,VALID,0,
2011-04-01, 01:12:05,VALID,1008.47,VALID,0,VALID,104,VALID,0.105969,VALID,23.0688,VALID,354,VALID,0,
2011-04-01, 01:13:05,VALID,1008.45,VALID,0,VALID,104,VALID,0,VALID,23.0493,VALID,354,VALID,0,
2011-04-01, 01:14:05,VALID,1008.45,VALID,0,VALID,104,VALID,0.105969,VALID,23.0688,VALID,354,VALID,0,
2011-04-01, 01:15:05,VALID,1008.44,VALID,0,VALID,104,VALID,0.105969,VALID,23.0688,VALID,354,VALID,0,
2011-04-01, 01:16:05,VALID,1008.41,VALID,0,VALID,104,VALID,0.105969,VALID,23.0511,VALID,354,VALID,0,
2011-04-01, 01:17:05,VALID,1008.39,VALID,0,VALID,104,VALID,0.105969,VALID,22.9909,VALID,354,VALID,0,
2011-04-01, 01:18:05,VALID,1008.35,VALID,0,VALID,104,VALID,0,VALID,22.9909,VALID,354,VALID,0,
2011-04-01, 01:19:05,VALID,1008.36,VALID,0,VALID,104,VALID,0,VALID,22.9926,VALID,354,VALID,0,
2011-04-01, 01:20:05,VALID,1008.37,VALID,0,VALID,104,VALID,0,VALID,22.9519,VALID,355,VALID,0,
2011-04-01, 01:21:05,VALID,1008.36,VALID,0,VALID,104,VALID,0,VALID,22.9926,VALID,354,VALID,0,
2011-04-01, 01:22:05,VALID,1008.34,VALID,0,VALID,104,VALID,0,VALID,22.9519,VALID,354,VALID,0,
2011-04-01, 01:23:05,VALID,1008.32,VALID,0,VALID,104,VALID,0.105969,VALID,22.9926,VALID,354,VALID,0,
2011-04-01, 01:24:05,VALID,1008.31,VALID,0,VALID,104,VALID,0.105969,VALID,22.9926,VALID,354,VALID,0,
2011-04-01, 01:25:05,VALID,1008.31,VALID,0,VALID,104,VALID,0,VALID,22.9926,VALID,354,VALID,0,
2011-04-01, 01:26:05,VALID,1008.29,VALID,0,VALID,104,VALID,0,VALID,22.9926,VALID,354,VALID,0,
2011-04-01, 01:27:05,VALID,1008.29,VALID,0,VALID,104,VALID,0,VALID,22.9909,VALID,354,VALID,0,
2011-04-01, 01:28:05,VALID,1008.33,VALID,0,VALID,104,VALID,0,VALID,23.0103,VALID,354,VALID,0,
2011-04-01, 01:29:05,VALID,1008.3,VALID,0,VALID,104,VALID,0,VALID,22.9909,VALID,354,VALID,0,
2011-04-01, 01:30:05,VALID,1008.3,VALID,0,VALID,104,VALID,0,VALID,23.0316,VALID,354,VALID,0,
2011-04-01, 01:31:05,VALID,1008.32,VALID,0,VALID,104,VALID,0.105969,VALID,23.0103,VALID,354,VALID,0,
2011-04-01, 01:32:05,VALID,1008.37,VALID,0,VALID,104,VALID,0.105969,VALID,23.0103,VALID,354,VALID,0,
2011-04-01, 01:33:05,VALID,1008.34,VALID,0,VALID,104,VALID,0.105969,VALID,23.0103,VALID,354,VALID,0,
2011-04-01, 01:34:05,VALID,1008.34,VALID,0,VALID,104,VALID,0.105969,VALID,23.0298,VALID,354,VALID,0,
2011-04-01, 01:35:05,VALID,1008.31,VALID,0,VALID,104,VALID,0.105969,VALID,23.0121,VALID,354,VALID,0,
2011-04-01, 01:36:05,VALID,1008.32,VALID,0,VALID,104,VALID,0.105969,VALID,22.9926,VALID,354,VALID,0,
2011-04-01, 01:37:05,VALID,1008.33,VALID,0,VALID,104,VALID,0.105969,VALID,23.0121,VALID,354,VALID,0,
2011-04-01, 01:38:05,VALID,1008.31,VALID,0,VALID,104,VALID,0,VALID,22.9909,VALID,354,VALID,0,
2011-04-01, 01:39:05,VALID,1008.31,VALID,0,VALID,104,VALID,0.105969,VALID,22.9714,VALID,354,VALID,0,
2011-04-01, 01:40:05,VALID,1008.26,VALID,0,VALID,104,VALID,0.105969,VALID,22.9714,VALID,354,VALID,0,
2011-04-01, 01:41:05,VALID,1008.27,VALID,0,VALID,104,VALID,0,VALID,23.0121,VALID,354,VALID,0,
2011-04-01, 01:42:05,VALID,1008.22,VALID,0,VALID,104,VALID,0,VALID,22.9714,VALID,354,VALID,0,
2011-04-01, 01:43:04,VALID,1008.19,VALID,0,VALID,104,VALID,0,VALID,22.9926,VALID,354,VALID,0,
2011-04-01, 01:44:04,VALID,1008.17,VALID,0,VALID,104,VALID,0.105969,VALID,22.9714,VALID,354,VALID,0,
2011-04-01, 01:45:04,VALID,1008.15,VALID,0,VALID,104,VALID,0.105969,VALID,22.9519,VALID,354,VALID,0,
2011-04-01, 01:46:04,VALID,1008.16,VALID,0,VALID,104,VALID,0,VALID,22.9536,VALID,354,VALID,0,
2011-04-01, 01:47:04,VALID,1008.16,VALID,0,VALID,104,VALID,0.105969,VALID,22.9536,VALID,354,VALID,0,
2011-04-01, 01:48:04,VALID,1008.12,VALID,0,VALID,104,VALID,0,VALID,22.9536,VALID,354,VALID,0,
2011-04-01, 01:49:04,VALID,1008.08,VALID,0,VALID,104,VALID,0,VALID,22.9324,VALID,354,VALID,0,
2011-04-01, 01:50:04,VALID,1008.05,VALID,0,VALID,104,VALID,0,VALID,22.9324,VALID,354,VALID,0,
2011-04-01, 01:51:04,VALID,1008.06,VALID,0,VALID,104,VALID,0,VALID,22.9324,VALID,354,VALID,0,
2011-04-01, 01:52:04,VALID,1008.02,VALID,0,VALID,104,VALID,0,VALID,22.9342,VALID,354,VALID,0,
2011-04-01, 01:53:04,VALID,1008.03,VALID,0,VALID,104,VALID,0,VALID,22.9129,VALID,354,VALID,0,
2011-04-01, 01:54:04,VALID,1008.04,VALID,0,VALID,104,VALID,0,VALID,22.9147,VALID,354,VALID,0,
2011-04-01, 01:55:04,VALID,1008.03,VALID,0,VALID,104,VALID,0,VALID,22.8935,VALID,354,VALID,0.0421875,
2011-04-01, 01:56:04,VALID,1008.05,VALID,0,VALID,104,VALID,0,VALID,22.9342,VALID,354,VALID,0.250781,
2011-04-01, 01:57:04,VALID,1008.05,VALID,0,VALID,104,VALID,0,VALID,22.9342,VALID,354,VALID,0.244531,
2011-04-01, 01:58:04,VALID,1008.03,VALID,0,VALID,104,VALID,0,VALID,22.9342,VALID,354,VALID,0.233594,
2011-04-01, 01:59:04,VALID,1008.04,VALID,0,VALID,104,VALID,0,VALID,22.9129,VALID,354,VALID,0.151953,
2011-04-01, 02:00:04,VALID,1008.05,VALID,0,VALID,104,VALID,0.105969,VALID,22.9342,VALID,354,VALID,0,
2011-04-01, 02:01:04,VALID,1008.02,VALID,0,VALID,104,VALID,0,VALID,22.8952,VALID,354,VALID,0,
2011-04-01, 02:02:04,VALID,1008.01,VALID,0,VALID,104,VALID,0,VALID,22.874,VALID,354,VALID,0,
2011-04-01, 02:03:04,VALID,1008.02,VALID,0,VALID,104,VALID,0,VALID,22.8545,VALID,354,VALID,0,
2011-04-01, 02:04:04,VALID,1008.05,VALID,0,VALID,104,VALID,0,VALID,22.8562,VALID,354,VALID,0,
2011-04-01, 02:05:04,VALID,1008.01,VALID,0,VALID,104,VALID,0,VALID,22.8155,VALID,354,VALID,0,
2011-04-01, 02:06:04,VALID,1008,VALID,0,VALID,104,VALID,0,VALID,22.8155,VALID,354,VALID,0,
2011-04-01, 02:07:04,VALID,1007.99,VALID,0,VALID,104,VALID,0.105969,VALID,22.8368,VALID,354,VALID,0,
2011-04-01, 02:08:04,VALID,1007.97,VALID,0,VALID,104,VALID,0,VALID,22.835,VALID,354,VALID,0,
2011-04-01, 02:09:04,VALID,1007.94,VALID,0,VALID,104,VALID,0,VALID,22.8562,VALID,354,VALID,0,
2011-04-01, 02:10:04,VALID,1007.96,VALID,0,VALID,104,VALID,0.105969,VALID,22.8562,VALID,354,VALID,0,
2011-04-01, 02:11:04,VALID,1007.98,VALID,0,VALID,104,VALID,0,VALID,22.8368,VALID,354,VALID,0,
2011-04-01, 02:12:04,VALID,1008,VALID,0,VALID,104,VALID,0,VALID,22.8368,VALID,354,VALID,0,
2011-04-01, 02:13:04,VALID,1008.02,VALID,0,VALID,104,VALID,0,VALID,22.8562,VALID,354,VALID,0,
2011-04-01, 02:14:04,VALID,1007.99,VALID,0,VALID,104,VALID,0.105969,VALID,22.8562,VALID,354,VALID,0,
2011-04-01, 02:15:04,VALID,1007.97,VALID,0,VALID,104,VALID,0,VALID,22.8368,VALID,354,VALID,0,
2011-04-01, 02:16:04,VALID,1007.97,VALID,0,VALID,104,VALID,0,VALID,22.8562,VALID,354,VALID,0,
2011-04-01, 02:17:04,VALID,1007.92,VALID,0,VALID,104,VALID,0,VALID,22.8368,VALID,354,VALID,0,
2011-04-01, 02:18:04,VALID,1007.91,VALID,0,VALID,104,VALID,0,VALID,22.835,VALID,354,VALID,0.278516,
2011-04-01, 02:19:04,VALID,1007.87,VALID,0,VALID,104,VALID,0,VALID,22.8562,VALID,354,VALID,0.224609,
2011-04-01, 02:20:04,VALID,1007.85,VALID,0,VALID,104,VALID,0,VALID,22.8562,VALID,354,VALID,0.204688,
2011-04-01, 02:21:04,VALID,1007.83,VALID,0,VALID,104,VALID,0.105969,VALID,22.8545,VALID,354,VALID,0.147656,
2011-04-01, 02:22:04,VALID,1007.82,VALID,0,VALID,104,VALID,0,VALID,22.835,VALID,354,VALID,0,
2011-04-01, 02:23:04,VALID,1007.79,VALID,0,VALID,104,VALID,0.105969,VALID,22.8562,VALID,354,VALID,0,
2011-04-01, 02:24:04,VALID,1007.78,VALID,0,VALID,104,VALID,0,VALID,22.835,VALID,354,VALID,0.00429688,
2011-04-01, 02:25:04,VALID,1007.76,VALID,0,VALID,104,VALID,0,VALID,22.8155,VALID,354,VALID,0,
2011-04-01, 02:26:04,VALID,1007.79,VALID,0,VALID,104,VALID,0,VALID,22.8173,VALID,354,VALID,0,
2011-04-01, 02:27:04,VALID,1007.77,VALID,0,VALID,104,VALID,0.105969,VALID,22.7961,VALID,354,VALID,0,
2011-04-01, 02:28:04,VALID,1007.74,VALID,0,VALID,104,VALID,0,VALID,22.8173,VALID,354,VALID,0,
2011-04-01, 02:29:04,VALID,1007.73,VALID,0,VALID,104,VALID,0,VALID,22.7978,VALID,354,VALID,0,
2011-04-01, 02:30:04,VALID,1007.72,VALID,0,VALID,104,VALID,0,VALID,22.7783,VALID,354,VALID,0,
2011-04-01, 02:31:04,VALID,1007.74,VALID,0,VALID,104,VALID,0,VALID,22.7783,VALID,354,VALID,0,
2011-04-01, 02:32:04,VALID,1007.75,VALID,0,VALID,104,VALID,0,VALID,22.7783,VALID,354,VALID,0,
2011-04-01, 02:33:04,VALID,1007.75,VALID,0,VALID,104,VALID,0,VALID,22.7571,VALID,354,VALID,0,
2011-04-01, 02:34:04,VALID,1007.76,VALID,0,VALID,104,VALID,0,VALID,22.7783,VALID,354,VALID,0,
2011-04-01, 02:35:04,VALID,1007.77,VALID,0,VALID,104,VALID,0,VALID,22.7571,VALID,354,VALID,0,
2011-04-01, 02:36:04,VALID,1007.74,VALID,0,VALID,104,VALID,0,VALID,22.7783,VALID,354,VALID,0,
2011-04-01, 02:37:04,VALID,1007.73,VALID,0,VALID,104,VALID,0,VALID,22.7978,VALID,354,VALID,0,
2011-04-01, 02:38:04,VALID,1007.7,VALID,0,VALID,104,VALID,0,VALID,22.7961,VALID,354,VALID,0,
2011-04-01, 02:39:04,VALID,1007.71,VALID,0,VALID,104,VALID,0,VALID,22.8368,VALID,354,VALID,0,
2011-04-01, 02:40:04,VALID,1007.66,VALID,0,VALID,104,VALID,0,VALID,22.8173,VALID,354,VALID,0,
2011-04-01, 02:41:04,VALID,1007.66,VALID,0,VALID,104,VALID,0.105969,VALID,22.8155,VALID,354,VALID,0,
2011-04-01, 02:42:04,VALID,1007.64,VALID,0,VALID,104,VALID,0,VALID,22.8368,VALID,354,VALID,0,
2011-04-01, 02:43:04,VALID,1007.68,VALID,0,VALID,104,VALID,0,VALID,22.8368,VALID,354,VALID,0,
2011-04-01, 02:44:04,VALID,1007.69,VALID,0,VALID,104,VALID,0,VALID,22.8155,VALID,354,VALID,0,
2011-04-01, 02:45:04,VALID,1007.65,VALID,0,VALID,104,VALID,0,VALID,22.8562,VALID,354,VALID,0,
2011-04-01, 02:46:04,VALID,1007.65,VALID,0,VALID,104,VALID,0.105969,VALID,22.8545,VALID,354,VALID,0,
2011-04-01, 02:47:04,VALID,1007.64,VALID,0,VALID,104,VALID,0,VALID,22.8562,VALID,354,VALID,0,
2011-04-01, 02:48:04,VALID,1007.63,VALID,0,VALID,104,VALID,0,VALID,22.8562,VALID,354,VALID,0,
2011-04-01, 02:49:04,VALID,1007.62,VALID,0,VALID,104,VALID,0,VALID,22.8562,VALID,354,VALID,0,
2011-04-01, 02:50:04,VALID,1007.58,VALID,0,VALID,104,VALID,0,VALID,22.8545,VALID,354,VALID,0,
2011-04-01, 02:51:04,VALID,1007.61,VALID,0,VALID,104,VALID,0,VALID,22.835,VALID,354,VALID,0,
2011-04-01, 02:52:04,VALID,1007.62,VALID,0,VALID,104,VALID,0,VALID,22.8757,VALID,354,VALID,0,
2011-04-01, 02:53:04,VALID,1007.61,VALID,0,VALID,104,VALID,0,VALID,22.8952,VALID,354,VALID,0,
2011-04-01, 02:54:04,VALID,1007.61,VALID,0,VALID,104,VALID,0,VALID,22.8952,VALID,354,VALID,0,
2011-04-01, 02:55:04,VALID,1007.56,VALID,0,VALID,104,VALID,0,VALID,22.9147,VALID,354,VALID,0,
2011-04-01, 02:56:04,VALID,1007.53,VALID,0,VALID,104,VALID,0,VALID,22.8935,VALID,354,VALID,0,
2011-04-01, 02:57:04,VALID,1007.51,VALID,0,VALID,104,VALID,0,VALID,22.9147,VALID,354,VALID,0,
2011-04-01, 02:58:04,VALID,1007.53,VALID,0,VALID,104,VALID,0,VALID,22.874,VALID,354,VALID,0,
2011-04-01, 02:59:04,VALID,1007.57,VALID,0,VALID,104,VALID,0,VALID,22.8952,VALID,354,VALID,0,
2011-04-01, 03:00:04,VALID,1007.55,VALID,0,VALID,104,VALID,0,VALID,22.8952,VALID,354,VALID,0,
2011-04-01, 03:01:04,VALID,1007.54,VALID,0,VALID,104,VALID,0,VALID,22.8952,VALID,354,VALID,0,
2011-04-01, 03:02:04,VALID,1007.49,VALID,0,VALID,104,VALID,0,VALID,22.8935,VALID,354,VALID,0,
2011-04-01, 03:03:04,VALID,1007.47,VALID,0,VALID,104,VALID,0,VALID,22.9147,VALID,354,VALID,0,
2011-04-01, 03:04:04,VALID,1007.46,VALID,0,VALID,104,VALID,0,VALID,22.8935,VALID,354,VALID,0,
2011-04-01, 03:05:04,VALID,1007.47,VALID,0,VALID,104,VALID,0,VALID,22.874,VALID,354,VALID,0,
2011-04-01, 03:06:04,VALID,1007.5,VALID,0,VALID,104,VALID,0,VALID,22.8757,VALID,354,VALID,0,
2011-04-01, 03:07:04,VALID,1007.48,VALID,0,VALID,104,VALID,0,VALID,22.8562,VALID,354,VALID,0,
2011-04-01, 03:08:04,VALID,1007.45,VALID,0,VALID,104,VALID,0,VALID,22.8562,VALID,354,VALID,0,
2011-04-01, 03:09:04,VALID,1007.43,VALID,0,VALID,104,VALID,0,VALID,22.8368,VALID,354,VALID,0,
2011-04-01, 03:10:04,VALID,1007.45,VALID,0,VALID,104,VALID,0,VALID,22.835,VALID,354,VALID,0,
2011-04-01, 03:11:04,VALID,1007.43,VALID,0,VALID,104,VALID,0,VALID,22.8368,VALID,354,VALID,0,
2011-04-01, 03:12:04,VALID,1007.44,VALID,0,VALID,104,VALID,0,VALID,22.8173,VALID,354,VALID,0,
2011-04-01, 03:13:04,VALID,1007.46,VALID,0,VALID,104,VALID,0,VALID,22.8368,VALID,354,VALID,0,
2011-04-01, 03:14:04,VALID,1007.48,VALID,0,VALID,104,VALID,0,VALID,22.8368,VALID,354,VALID,0.221484,
2011-04-01, 03:15:04,VALID,1007.48,VALID,0,VALID,104,VALID,0,VALID,22.8562,VALID,354,VALID,0.214844,
2011-04-01, 03:16:04,VALID,1007.45,VALID,0,VALID,104,VALID,0,VALID,22.8155,VALID,354,VALID,0.00664063,
2011-04-01, 03:17:04,VALID,1007.41,VALID,0,VALID,104,VALID,0,VALID,22.8368,VALID,354,VALID,0,
2011-04-01, 03:18:04,VALID,1007.44,VALID,0,VALID,104,VALID,0,VALID,22.8173,VALID,354,VALID,0,
2011-04-01, 03:19:04,VALID,1007.41,VALID,0,VALID,104,VALID,0,VALID,22.7783,VALID,354,VALID,0,
2011-04-01, 03:20:04,VALID,1007.45,VALID,0,VALID,104,VALID,0,VALID,22.7588,VALID,354,VALID,0,
2011-04-01, 03:21:04,VALID,1007.43,VALID,0,VALID,104,VALID,0,VALID,22.7588,VALID,354,VALID,0,
2011-04-01, 03:22:04,VALID,1007.45,VALID,0,VALID,104,VALID,0,VALID,22.7199,VALID,354,VALID,0,
2011-04-01, 03:23:04,VALID,1007.46,VALID,0,VALID,104,VALID,0,VALID,22.6987,VALID,354,VALID,0,
2011-04-01, 03:24:04,VALID,1007.46,VALID,0,VALID,104,VALID,0,VALID,22.7004,VALID,354,VALID,0,
2011-04-01, 03:25:04,VALID,1007.49,VALID,0,VALID,104,VALID,0,VALID,22.6614,VALID,354,VALID,0,
2011-04-01, 03:26:04,VALID,1007.52,VALID,0,VALID,104,VALID,0,VALID,22.6402,VALID,354,VALID,0,
2011-04-01, 03:27:04,VALID,1007.56,VALID,0,VALID,104,VALID,0,VALID,22.6208,VALID,354,VALID,0,
2011-04-01, 03:28:04,VALID,1007.57,VALID,0,VALID,104,VALID,0,VALID,22.6225,VALID,354,VALID,0,
2011-04-01, 03:29:04,VALID,1007.58,VALID,0,VALID,104,VALID,0,VALID,22.6225,VALID,354,VALID,0,
2011-04-01, 03:30:04,VALID,1007.6,VALID,0,VALID,104,VALID,0,VALID,22.6225,VALID,354,VALID,0,
2011-04-01, 03:31:04,VALID,1007.61,VALID,0,VALID,104,VALID,0,VALID,22.5818,VALID,354,VALID,0,
2011-04-01, 03:32:04,VALID,1007.64,VALID,0,VALID,104,VALID,0,VALID,22.5835,VALID,354,VALID,0,
2011-04-01, 03:33:04,VALID,1007.67,VALID,0,VALID,104,VALID,0,VALID,22.564,VALID,354,VALID,0,
2011-04-01, 03:34:04,VALID,1007.63,VALID,0,VALID,104,VALID,0,VALID,22.564,VALID,354,VALID,0,
2011-04-01, 03:35:04,VALID,1007.62,VALID,0,VALID,104,VALID,0,VALID,22.564,VALID,354,VALID,0,
2011-04-01, 03:36:04,VALID,1007.6,VALID,0,VALID,104,VALID,0,VALID,22.5446,VALID,354,VALID,0,
2011-04-01, 03:37:04,VALID,1007.61,VALID,0,VALID,104,VALID,0,VALID,22.5446,VALID,354,VALID,0,
2011-04-01, 03:38:04,VALID,1007.61,VALID,0,VALID,104,VALID,0,VALID,22.5251,VALID,354,VALID,0,
2011-04-01, 03:39:04,VALID,1007.6,VALID,0,VALID,104,VALID,0,VALID,22.5446,VALID,354,VALID,0,
2011-04-01, 03:40:04,VALID,1007.63,VALID,0,VALID,104,VALID,0,VALID,22.5039,VALID,354,VALID,0,
2011-04-01, 03:41:04,VALID,1007.6,VALID,0,VALID,104,VALID,0,VALID,22.4844,VALID,354,VALID,0,
2011-04-01, 03:42:04,VALID,1007.61,VALID,0,VALID,104,VALID,0,VALID,22.5056,VALID,354,VALID,0,
2011-04-01, 03:43:04,VALID,1007.62,VALID,0,VALID,104,VALID,0,VALID,22.5251,VALID,355,VALID,0,
2011-04-01, 03:44:04,VALID,1007.64,VALID,0,VALID,104,VALID,0,VALID,22.5251,VALID,355,VALID,0,
2011-04-01, 03:45:04,VALID,1007.64,VALID,0,VALID,104,VALID,0.105969,VALID,22.4844,VALID,354,VALID,0,
2011-04-01, 03:46:04,VALID,1007.66,VALID,0,VALID,104,VALID,0,VALID,22.5056,VALID,354,VALID,0,
2011-04-01, 03:47:04,VALID,1007.63,VALID,0,VALID,104,VALID,0,VALID,22.4844,VALID,354,VALID,0,
2011-04-01, 03:48:04,VALID,1007.64,VALID,0,VALID,104,VALID,0,VALID,22.5056,VALID,354,VALID,0,
2011-04-01, 03:49:04,VALID,1007.56,VALID,0,VALID,104,VALID,0,VALID,22.5251,VALID,354,VALID,0,
2011-04-01, 03:50:04,VALID,1007.55,VALID,0,VALID,104,VALID,0,VALID,22.5446,VALID,354,VALID,0,
2011-04-01, 03:51:04,VALID,1007.57,VALID,0,VALID,104,VALID,0,VALID,22.5446,VALID,354,VALID,0,
2011-04-01, 03:52:04,VALID,1007.6,VALID,0,VALID,104,VALID,0.105969,VALID,22.5039,VALID,355,VALID,0,
2011-04-01, 03:53:04,VALID,1007.61,VALID,0,VALID,104,VALID,0.105969,VALID,22.5039,VALID,354,VALID,0,
2011-04-01, 03:54:04,VALID,1007.59,VALID,0,VALID,104,VALID,0,VALID,22.5056,VALID,354,VALID,0,
2011-04-01, 03:55:04,VALID,1007.55,VALID,0,VALID,104,VALID,0,VALID,22.4861,VALID,354,VALID,0,
2011-04-01, 03:56:04,VALID,1007.56,VALID,0,VALID,104,VALID,0,VALID,22.4861,VALID,354,VALID,0,
2011-04-01, 03:57:04,VALID,1007.6,VALID,0,VALID,104,VALID,0,VALID,22.4455,VALID,354,VALID,0,
2011-04-01, 03:58:04,VALID,1007.61,VALID,0,VALID,104,VALID,0,VALID,22.465,VALID,354,VALID,0,
2011-04-01, 03:59:04,VALID,1007.63,VALID,0,VALID,104,VALID,0,VALID,22.4861,VALID,354,VALID,0,
2011-04-01, 04:00:04,VALID,1007.63,VALID,0,VALID,104,VALID,0,VALID,22.4861,VALID,354,VALID,0,
2011-04-01, 04:01:04,VALID,1007.66,VALID,0,VALID,104,VALID,0,VALID,22.465,VALID,354,VALID,0,
2011-04-01, 04:02:04,VALID,1007.68,VALID,0,VALID,104,VALID,0,VALID,22.4861,VALID,354,VALID,0,
2011-04-01, 04:03:04,VALID,1007.66,VALID,0,VALID,104,VALID,0,VALID,22.4667,VALID,354,VALID,0,